Location: ???????
(54.6339°N, 39.4245°E)
Time: 06:54:04
(UTC+00:00)

Okean 1 - Pass Details

Date: 19 May 2025
Orbit: 477 x 499 km, 82.5° (Epoch: 15 June)

Event Time Altitude Azimuth Distance (km) Brightness Sun altitude
Exits shadow 20:09:06 - 220° (SW) 1,749 5.6 -13.9°
Reaches altitude 10° 20:09:16 10° 221° (SW) 1,683 5.5 -13.9°
Maximum altitude 20:12:41 36° 289° (WNW) 800 4.5 -14.1°
Drops below altitude 10° 20:16:07 10° 357° (N) 1,684 7.1 -14.2°
Sets 20:18:21 0° 7° (N) 2,566 8.1 -14.3°
